Погода в Каррик-он-Шанноне

Ирландия     53°56′36″N   8°05′41″W
темп.,
°C
ветер,
м/с
пор.,
м/с
влажн.,
%
обл.,
%
осадки,
мм/ч
давл.,
гПа
погр.,
м
17 апреля, сб
сб1701:00+4ююв278729 0.1 1029242
04:00+2юв269776 0.0 1029167
07:00+2юв289540 0.0 1028264
10:00+8ююв3873100 0.0 1027774
13:00+11ю4758100 0.0 10261333
16:00+11ю4862100 0.0 10241368
19:00+10ю4867100 0.0 10231015
22:00+6ю31095100 1.1 1023636
18 апреля, вс
вс1801:00+6ююв2999100 4.0 1022511
04:00+6ююв2899100 3.6 1021477
07:00+6ююв2899100 4.8 1021447
10:00+7ююв2799100 0.1 1021409
13:00+7ююв2699100 0.6 1021407
16:00+8ююв2699100 0.1 1020391
19:00+8юв2599100 0.2 1020390
22:00+7юв2799100 0.1 1021401
19 апреля, пн
пн1901:00+7юв2899100 0.3 1020434
04:00+7ююв2999100 0.1 1019554
07:00+7ююв2899100 0.6 1019577
10:00+6ююв2798100 1.1 1019587
13:00+6ююв2797100 1.9 1019759
16:00+7юв2797100 1.1 1018625
19:00+6вюв1599100 2.6 1018313
22:00+6вюв1599100 1.6 1019208
20 апреля, вт
вт2001:00+5в1298100 3.3 1019105
04:00+5вюв1299100 1.4 101993
07:00+5юв0099100 2.1 102038
10:00+6сз0298100 0.1 1021148
13:00+8ссз1494100 0.2 1022553
16:00+9ссв2581100 0.1 1022856
19:00+10ссв24641 0.1 10231066
22:00+3с22870 0.0 102543
21 апреля, ср
ср2101:00+1с11920 0.0 102619
04:000с11945 0.0 102613
07:00+1ссв119320 0.0 102630
10:00+8всв23616 0.0 1027783
13:00+12в124410 0.0 10261182
16:00+13ююв11420 0.0 10251466
19:00+11ю13630 0.0 1025257
22:00+5св00900 0.0 102610